W4RJF Weather Reports


Display with metric or nautical units.
time (UTC)temp
F
wind
direction
speed
MPH
gust
MPH
rain 1hr
in
rain 24hr
in
rain mn
in
humidity
%
barometer
mb
20260901000035 82 188 0.0 0.0 0.00 0.00 0.00 74 1018.1
20260831235517 82 188 0.0 0.0 0.00 0.00 0.00 73 1018.0
20260831235018 82 188 0.0 0.0 0.00 0.00 0.00 72 1018.0
20260831234532 83 188 0.0 0.0 0.00 0.00 0.00 73 1018.1
20260831234018 83 188 0.0 0.0 0.00 0.00 0.00 72 1018.1
20260831233511 83 188 0.0 0.0 0.00 0.00 0.00 72 1018.0
20260831233030 83 188 0.0 0.0 0.00 0.00 0.00 71 1018.0
20260831232515 84 188 0.0 0.0 0.00 0.00 0.00 69 1017.9
20260831232002 84 188 0.0 0.0 0.00 0.00 0.00 70 1017.9
20260831231508 84 188 0.0 0.0 0.00 0.00 0.00 70 1018.0
20260831231003 85 188 0.0 0.0 0.00 0.00 0.00 70 1017.9
20260831230503 85 188 0.0 0.0 0.00 0.00 0.00 68 1017.9
20260831230017 86 188 0.0 0.0 0.00 0.00 0.00 66 1018.0
20260831225507 86 188 0.0 0.0 0.00 0.00 0.00 61 1017.9
20260831225010 86 188 0.0 0.0 0.00 0.00 0.00 62 1017.9
20260831224524 86 188 0.0 0.0 0.00 0.00 0.00 63 1017.9
20260831224012 87 188 0.0 0.0 0.00 0.00 0.00 62 1017.9
20260831223511 87 188 0.0 2.0 0.00 0.00 0.00 59 1017.8
20260831223034 88 188 0.0 2.0 0.00 0.00 0.00 58 1017.8
20260831222516 89 201 0.0 2.0 0.00 0.00 0.00 57 1017.8
20260831222015 89 201 0.0 2.0 0.00 0.00 0.00 55 1017.9
20260831221529 90 201 0.0 2.0 0.00 0.00 0.00 53 1017.8
20260831221003 90 201 0.0 2.0 0.00 0.00 0.00 55 1017.8
20260831220503 90 207 0.0 2.0 0.00 0.00 0.00 55 1017.9
20260831220020 90 227 0.0 2.0 0.00 0.00 0.00 53 1017.9
20260831215509 90 189 0.0 2.0 0.00 0.00 0.00 53 1017.9
20260831215008 89 209 0.0 2.0 0.00 0.00 0.00 53 1018.0
20260831214518 89 194 0.0 2.0 0.00 0.00 0.00 54 1018.1
20260831214009 89 194 0.0 1.0 0.00 0.00 0.00 54 1018.1
20260831213513 90 194 0.0 2.0 0.00 0.00 0.00 54 1018.1
20260831213028 90 177 0.0 2.0 0.00 0.00 0.00 53 1018.2
20260831212512 90 213 0.0 2.0 0.00 0.00 0.00 54 1018.2
20260831212014 90 203 0.0 2.0 0.00 0.00 0.00 52 1018.2
20260831211536 90 220 0.0 2.0 0.00 0.00 0.00 52 1018.2
20260831211016 90 194 0.0 2.0 0.00 0.00 0.00 54 1018.2
20260831210518 90 194 0.0 2.0 0.00 0.00 0.00 51 1018.2
20260831210010 92 146 0.0 2.0 0.00 0.00 0.00 51 1018.3
20260831205506 92 183 0.0 2.0 0.00 0.00 0.00 51 1018.3
20260831205008 91 190 0.0 2.0 0.00 0.00 0.00 51 1018.3
20260831204516 91 190 0.0 2.0 0.00 0.00 0.00 51 1018.3
20260831204010 91 178 0.0 2.0 0.00 0.00 0.00 53 1018.4
20260831203510 91 208 0.0 2.0 0.00 0.00 0.00 52 1018.4
20260831203027 91 183 0.0 3.0 0.00 0.00 0.00 52 1018.5
20260831202514 91 183 0.0 3.0 0.00 0.00 0.00 51 1018.5
20260831202014 90 300 0.0 3.0 0.00 0.00 0.00 52 1018.5
20260831201530 90 214 1.0 3.0 0.00 0.00 0.00 55 1018.5
20260831201014 90 290 0.0 2.0 0.00 0.00 0.00 53 1018.6
20260831200515 90 210 0.0 2.0 0.00 0.00 0.00 55 1018.5
20260831200029 90 202 0.0 2.0 0.00 0.00 0.00 52 1018.5
20260831195514 91 198 0.0 2.0 0.00 0.00 0.00 51 1018.6
20260831195018 91 81 0.0 3.0 0.00 0.00 0.00 53 1018.7
20260831194520 91 302 0.0 3.0 0.00 0.00 0.00 52 1018.8
20260831194007 90 207 0.0 3.0 0.00 0.00 0.00 56 1018.8
20260831193509 91 284 0.0 2.0 0.00 0.00 0.00 55 1018.8
20260831193019 91 186 0.0 2.0 0.00 0.00 0.00 51 1019.0
20260831192511 91 253 0.0 2.0 0.00 0.00 0.00 52 1019.0
20260831192015 91 232 0.0 2.0 0.00 0.00 0.00 51 1019.0
20260831191528 91 275 0.0 2.0 0.00 0.00 0.00 52 1019.1
20260831191013 92 322 0.0 2.0 0.00 0.00 0.00 50 1019.2
20260831190515 93 199 0.0 2.0 0.00 0.00 0.00 48 1019.3
20260831190031 94 100 0.0 2.0 0.00 0.00 0.00 49 1019.3
20260831185515 94 71 0.0 2.0 0.00 0.00 0.00 47 1019.4
20260831185016 94 202 0.0 2.0 0.00 0.00 0.00 45 1019.4
20260831184534 94 182 0.0 2.0 0.00 0.00 0.00 47 1019.6
20260831184014 93 188 0.0 3.0 0.00 0.00 0.00 48 1019.5
20260831183507 93 259 1.0 3.0 0.00 0.00 0.00 50 1019.6
20260831183018 93 201 0.0 2.0 0.00 0.00 0.00 50 1019.6
20260831182509 92 176 0.0 2.0 0.00 0.00 0.00 51 1019.7
20260831182012 92 219 0.0 2.0 0.00 0.00 0.00 52 1019.7
20260831181524 91 135 0.0 2.0 0.00 0.00 0.00 53 1019.8
20260831181011 91 232 0.0 2.0 0.00 0.00 0.00 58 1019.8
20260831180513 90 207 0.0 2.0 0.00 0.00 0.00 56 1019.8
20260831180027 89 224 0.0 2.0 0.00 0.00 0.00 56 1019.9
20260831175512 89 200 0.0 2.0 0.00 0.00 0.00 58 1020.0
20260831175016 89 200 0.0 3.0 0.00 0.00 0.00 59 1020.0
20260831174531 88 223 1.0 3.0 0.00 0.00 0.00 62 1019.9
20260831174016 88 323 0.0 3.0 0.00 0.00 0.00 62 1020.0
20260831173516 87 214 1.0 4.0 0.00 0.00 0.00 62 1020.0
20260831173034 87 196 1.0 4.0 0.00 0.00 0.00 62 1020.1
20260831172517 87 12 0.0 2.0 0.00 0.00 0.00 62 1020.1
20260831172009 87 282 0.0 2.0 0.00 0.00 0.00 64 1020.0
20260831171521 87 180 0.0 2.0 0.00 0.00 0.00 66 1020.0
20260831171010 86 198 0.0 2.0 0.00 0.00 0.00 67 1020.1
20260831170513 86 252 0.0 2.0 0.00 0.00 0.00 66 1020.1
20260831170027 86 5 0.0 1.0 0.00 0.00 0.00 66 1020.2
20260831165513 86 318 0.0 2.0 0.00 0.00 0.00 70 1020.2
20260831165013 86 226 0.0 2.0 0.00 0.00 0.00 66 1020.2
20260831164532 86 201 1.0 2.0 0.00 0.00 0.00 68 1020.2
20260831164015 86 217 0.0 2.0 0.00 0.00 0.00 70 1020.3
20260831163516 86 352 1.0 2.0 0.00 0.00 0.00 67 1020.3
20260831163032 85 200 0.0 2.0 0.00 0.00 0.00 68 1020.4
20260831162520 85 229 1.0 2.0 0.00 0.00 0.00 69 1020.4
20260831162017 85 250 0.0 2.0 0.00 0.00 0.00 67 1020.5
20260831161538 85 333 0.0 3.0 0.00 0.00 0.00 70 1020.4
20260831161008 85 300 1.0 3.0 0.00 0.00 0.00 69 1020.5
20260831160511 85 95 0.0 1.0 0.00 0.00 0.00 69 1020.6
20260831160024 85 100 0.0 3.0 0.00 0.00 0.00 70 1020.6
20260831155514 84 286 1.0 3.0 0.00 0.00 0.00 70 1020.6
20260831155016 84 100 0.0 2.0 0.00 0.00 0.00 73 1020.7
20260831154555 83 25 0.0 2.0 0.00 0.00 0.00 73 1020.8
20260831154015 83 333 0.0 3.0 0.00 0.00 0.00 71 1020.8
20260831153520 83 279 0.0 3.0 0.00 0.00 0.00 74 1020.9
20260831153033 83 352 0.0 3.0 0.00 0.00 0.00 72 1021.1
20260831152517 83 360 0.0 2.0 0.00 0.00 0.00 74 1021.0
20260831152016 83 360 1.0 2.0 0.00 0.00 0.00 74 1021.0
20260831151532 83 13 0.0 2.0 0.00 0.00 0.00 74 1021.0
20260831151021 83 321 0.0 2.0 0.00 0.00 0.00 74 1021.0
20260831150519 82 10 1.0 2.0 0.00 0.00 0.00 75 1020.9
20260831150022 82 242 0.0 3.0 0.00 0.00 0.00 75 1020.9
20260831145511 82 26 1.0 3.0 0.00 0.00 0.00 76 1020.9
20260831145013 81 273 0.0 3.0 0.00 0.00 0.00 77 1020.9
20260831144525 81 219 0.0 3.0 0.00 0.00 0.00 76 1020.8
20260831144013 81 284 0.0 2.0 0.00 0.00 0.00 76 1020.9
20260831143514 81 90 0.0 2.0 0.00 0.00 0.00 76 1020.9
20260831143034 81 46 0.0 1.0 0.00 0.00 0.00 79 1020.8
20260831142517 80 323 0.0 1.0 0.00 0.00 0.00 80 1020.8
20260831142004 80 5 0.0 2.0 0.00 0.00 0.00 80 1020.7
20260831141507 80 352 0.0 3.0 0.00 0.00 0.00 81 1020.7
20260831141004 80 17 0.0 3.0 0.00 0.00 0.00 81 1020.6
20260831140504 79 28 0.0 2.0 0.00 0.00 0.00 84 1020.6
20260831140016 79 277 0.0 2.0 0.00 0.00 0.00 84 1020.6
20260831135504 78 281 0.0 2.0 0.00 0.00 0.00 86 1020.6
20260831135006 78 350 0.0 2.0 0.00 0.00 0.00 87 1020.6
20260831134512 78 331 0.0 1.0 0.00 0.00 0.00 88 1020.6
20260831134003 78 331 0.0 2.0 0.00 0.00 0.00 88 1020.6
20260831133505 77 5 0.0 2.0 0.00 0.00 0.00 89 1020.6
20260831133007 77 9 0.0 1.0 0.00 0.00 0.00 89 1020.6
20260831132504 76 352 0.0 1.0 0.00 0.00 0.00 90 1020.6
20260831132003 76 263 0.0 0.0 0.00 0.00 0.00 91 1020.6
20260831131510 76 345 0.0 2.0 0.00 0.00 0.00 92 1020.6
20260831131007 75 341 0.0 2.0 0.00 0.00 0.00 92 1020.6
20260831130504 75 323 0.0 0.0 0.00 0.00 0.00 93 1020.6
20260831130013 74 360 0.0 0.0 0.00 0.00 0.00 94 1020.6
20260831125508 74 11 0.0 0.0 0.00 0.00 0.00 94 1020.5
20260831125005 74 17 0.0 0.0 0.00 0.00 0.00 95 1020.7
20260831124514 73 17 0.0 0.0 0.00 0.00 0.00 95 1020.7
20260831124004 73 15 0.0 0.0 0.00 0.00 0.00 96 1020.7
20260831123504 72 318 0.0 0.0 0.00 0.00 0.00 96 1020.7
20260831123013 72 318 0.0 0.0 0.00 0.00 0.00 96 1020.7
20260831122503 71 318 0.0 0.0 0.00 0.00 0.00 96 1020.7
20260831122004 71 318 0.0 0.0 0.00 0.00 0.00 96 1020.7
20260831121508 71 196 0.0 0.0 0.00 0.00 0.00 96 1020.7
20260831121004 70 196 0.0 0.0 0.00 0.00 0.00 96 1020.6
20260831120505 70 196 0.0 0.0 0.00 0.00 0.00 96 1020.6
20260831120013 70 196 0.0 0.0 0.00 0.00 0.00 96 1020.6
20260831115507 69 196 0.0 0.0 0.00 0.00 0.00 96 1020.6
20260831115009 69 196 0.0 0.0 0.00 0.00 0.00 96 1020.6
20260831114523 69 196 0.0 0.0 0.00 0.00 0.00 96 1020.5
20260831114007 69 196 0.0 0.0 0.00 0.00 0.00 96 1020.4
20260831113510 69 196 0.0 0.0 0.00 0.00 0.00 96 1020.4
20260831113015 68 196 0.0 0.0 0.00 0.00 0.00 96 1020.4
20260831112509 68 196 0.0 0.0 0.00 0.00 0.00 96 1020.5
20260831112006 68 196 0.0 0.0 0.00 0.00 0.00 96 1020.5
20260831111517 68 196 0.0 0.0 0.00 0.00 0.00 96 1020.5
20260831111007 68 196 0.0 0.0 0.00 0.00 0.00 96 1020.5
20260831110503 68 196 0.0 0.0 0.00 0.00 0.00 96 1020.4
20260831110030 68 196 0.0 0.0 0.00 0.00 0.00 96 1020.3
20260831105507 68 196 0.0 0.0 0.00 0.00 0.00 96 1020.4
20260831105007 68 196 0.0 0.0 0.00 0.00 0.00 96 1020.3
20260831104528 68 196 0.0 0.0 0.00 0.00 0.00 96 1020.3
20260831104007 68 196 0.0 0.0 0.00 0.00 0.00 96 1020.3
20260831103506 68 196 0.0 0.0 0.00 0.00 0.00 96 1020.3
20260831103018 68 196 0.0 0.0 0.00 0.00 0.00 96 1020.3
20260831102509 68 196 0.0 0.0 0.00 0.00 0.00 96 1020.3
20260831102009 68 196 0.0 0.0 0.00 0.00 0.00 96 1020.3
20260831101527 68 196 0.0 0.0 0.00 0.00 0.00 96 1020.2
20260831101009 68 196 0.0 0.0 0.00 0.00 0.00 96 1020.2
20260831100507 69 196 0.0 0.0 0.00 0.00 0.00 96 1020.2
20260831100021 69 196 0.0 0.0 0.00 0.00 0.00 96 1020.1
20260831095504 69 196 0.0 0.0 0.00 0.00 0.00 96 1020.1
20260831095005 68 196 0.0 0.0 0.00 0.00 0.00 96 1020.1
20260831094514 69 196 0.0 0.0 0.00 0.00 0.00 96 1020.1
20260831094007 68 196 0.0 0.0 0.00 0.00 0.00 96 1020.1
20260831093509 69 196 0.0 0.0 0.00 0.00 0.00 96 1020.1
20260831093022 69 196 0.0 0.0 0.00 0.00 0.00 96 1020.1
20260831092510 69 196 0.0 0.0 0.00 0.00 0.00 96 1020.1
20260831092008 69 196 0.0 0.0 0.00 0.00 0.00 96 1020.0
20260831091537 69 196 0.0 0.0 0.00 0.00 0.00 96 1020.0
20260831091010 69 196 0.0 0.0 0.00 0.00 0.00 96 1020.0
20260831090511 69 196 0.0 0.0 0.00 0.00 0.00 96 1020.0
20260831090028 69 196 0.0 0.0 0.00 0.00 0.00 96 1020.0
20260831085512 69 196 0.0 0.0 0.00 0.00 0.00 96 1020.0
20260831085012 69 196 0.0 0.0 0.00 0.00 0.00 96 1020.0
20260831084524 69 196 0.0 0.0 0.00 0.00 0.00 96 1020.0
20260831084005 69 196 0.0 0.0 0.00 0.00 0.00 96 1020.0
20260831083509 69 196 0.0 0.0 0.00 0.00 0.00 96 1020.0
20260831083021 69 196 0.0 0.0 0.00 0.00 0.00 95 1020.0
20260831082510 69 196 0.0 0.0 0.00 0.00 0.00 96 1020.0
20260831082003 69 196 0.0 0.0 0.00 0.00 0.00 95 1020.0
20260831081515 69 196 0.0 0.0 0.00 0.00 0.00 95 1020.1
20260831081003 69 196 0.0 0.0 0.00 0.00 0.00 96 1020.1
20260831080502 69 196 0.0 0.0 0.00 0.00 0.00 96 1020.1
20260831080014 69 196 0.0 0.0 0.00 0.00 0.00 95 1020.0
20260831075503 69 196 0.0 0.0 0.00 0.00 0.00 95 1020.1
20260831075005 69 196 0.0 0.0 0.00 0.00 0.00 95 1020.1
20260831074508 69 196 0.0 0.0 0.00 0.00 0.00 95 1020.0
20260831074009 69 196 0.0 0.0 0.00 0.00 0.00 95 1020.1
20260831073505 69 196 0.0 0.0 0.00 0.00 0.00 95 1020.1
20260831073050 69 196 0.0 0.0 0.00 0.00 0.00 95 1020.2
20260831072511 69 196 0.0 0.0 0.00 0.00 0.00 95 1020.2
20260831072010 70 196 0.0 0.0 0.00 0.00 0.00 95 1020.3
20260831071503 70 196 0.0 1.0 0.00 0.00 0.00 95 1020.3
20260831071002 70 196 0.0 1.0 0.00 0.00 0.00 95 1020.3
20260831070504 70 196 0.0 0.0 0.00 0.00 0.00 95 1020.2
20260831070005 70 196 0.0 0.0 0.00 0.00 0.00 95 1020.3
20260831065504 70 196 0.0 0.0 0.00 0.00 0.00 95 1020.3
20260831065003 70 196 0.0 0.0 0.00 0.00 0.00 95 1020.4
20260831064510 70 196 0.0 0.0 0.00 0.00 0.00 95 1020.4
20260831064003 70 196 0.0 0.0 0.00 0.00 0.00 95 1020.4
20260831063507 70 196 0.0 0.0 0.00 0.00 0.00 95 1020.4
20260831063023 70 196 0.0 0.0 0.00 0.00 0.00 95 1020.4
20260831062508 70 196 0.0 0.0 0.00 0.00 0.00 95 1020.3
20260831062010 70 196 0.0 0.0 0.00 0.00 0.00 95 1020.3
20260831061524 70 196 0.0 0.0 0.00 0.00 0.00 95 1020.3
20260831061012 70 196 0.0 0.0 0.00 0.00 0.00 95 1020.3
20260831060513 70 196 0.0 0.0 0.00 0.00 0.00 95 1020.3
20260831060004 70 196 0.0 0.0 0.00 0.00 0.00 95 1020.4
20260831055503 70 196 0.0 0.0 0.00 0.00 0.00 95 1020.4
20260831055003 71 196 0.0 0.0 0.00 0.00 0.00 95 1020.4
20260831054514 71 196 0.0 0.0 0.00 0.00 0.00 95 1020.5
20260831054006 71 196 0.0 0.0 0.00 0.00 0.00 95 1020.6
20260831053505 71 196 0.0 0.0 0.00 0.00 0.00 95 1020.6
20260831053012 71 196 0.0 0.0 0.00 0.00 0.00 95 1020.5
20260831052504 71 196 0.0 0.0 0.00 0.00 0.00 95 1020.5
20260831052007 71 196 0.0 0.0 0.00 0.00 0.00 95 1020.6
20260831051525 71 196 0.0 0.0 0.00 0.00 0.00 95 1020.6
20260831051007 71 196 0.0 0.0 0.00 0.00 0.00 95 1020.5
20260831050511 71 196 0.0 0.0 0.00 0.00 0.00 95 1020.6
20260831050029 72 196 0.0 0.0 0.00 0.00 0.00 95 1020.6
20260831045511 72 196 0.0 0.0 0.00 0.00 0.00 95 1020.7
20260831045004 72 196 0.0 0.0 0.00 0.00 0.00 95 1020.7
20260831044503 72 196 0.0 0.0 0.00 0.00 0.00 95 1020.6
20260831044004 72 196 0.0 0.0 0.00 0.00 0.00 95 1020.6
20260831043505 72 196 0.0 0.0 0.00 0.00 0.00 95 1020.5
20260831043008 72 196 0.0 0.0 0.00 0.00 0.00 95 1020.7
20260831042504 72 196 0.0 1.0 0.00 0.00 0.00 95 1020.7
20260831042004 72 196 0.0 1.0 0.00 0.00 0.00 95 1020.7
20260831041518 72 196 0.0 0.0 0.00 0.00 0.00 94 1020.7
20260831041014 72 196 0.0 0.0 0.00 0.00 0.00 94 1020.7
20260831040510 72 196 0.0 0.0 0.00 0.00 0.00 94 1020.6
20260831040023 72 196 0.0 0.0 0.00 0.00 0.00 94 1020.6
20260831035511 72 196 0.0 0.0 0.00 0.00 0.00 94 1020.7
20260831035012 72 196 0.0 0.0 0.00 0.00 0.00 94 1020.7
20260831034530 72 196 0.0 0.0 0.00 0.00 0.00 94 1020.7
20260831034011 72 196 0.0 0.0 0.00 0.00 0.00 94 1020.7
20260831033504 72 196 0.0 0.0 0.00 0.00 0.00 94 1020.8
20260831033012 72 196 0.0 0.0 0.00 0.00 0.00 94 1020.8
20260831032504 72 196 0.0 0.0 0.00 0.00 0.00 94 1020.7
20260831032005 72 196 0.0 0.0 0.00 0.00 0.00 93 1020.6
20260831031516 73 196 0.0 0.0 0.00 0.00 0.00 93 1020.6
20260831031007 73 196 0.0 0.0 0.00 0.00 0.00 93 1020.6
20260831030507 73 196 0.0 0.0 0.00 0.00 0.00 93 1020.6
20260831030020 73 196 0.0 0.0 0.00 0.00 0.00 93 1020.7
20260831025508 73 196 0.0 0.0 0.00 0.00 0.00 93 1020.7
20260831025016 73 196 0.0 0.0 0.00 0.00 0.00 93 1020.8
20260831024530 73 196 0.0 0.0 0.00 0.00 0.00 93 1020.8
20260831024014 73 196 0.0 0.0 0.00 0.00 0.00 93 1020.7
20260831023513 73 196 0.0 0.0 0.00 0.00 0.00 93 1020.8
20260831023031 73 196 0.0 0.0 0.00 0.00 0.00 93 1020.8
20260831022503 74 196 0.0 0.0 0.00 0.00 0.00 92 1020.8
20260831022005 74 196 0.0 0.0 0.00 0.00 0.00 92 1020.8
20260831021516 74 196 0.0 0.0 0.00 0.00 0.00 92 1020.7
20260831021004 74 196 0.0 0.0 0.00 0.00 0.00 92 1020.7
20260831020506 74 196 0.0 0.0 0.00 0.00 0.00 92 1020.6
20260831020018 74 196 0.0 0.0 0.00 0.00 0.00 92 1020.8
20260831015509 74 196 0.0 0.0 0.00 0.00 0.00 91 1020.7
20260831015008 74 196 0.0 0.0 0.00 0.00 0.00 91 1020.8
20260831014525 74 196 0.0 0.0 0.00 0.00 0.00 91 1020.7
20260831014011 75 196 0.0 0.0 0.00 0.00 0.00 91 1020.6
20260831013514 75 196 0.0 0.0 0.00 0.00 0.00 91 1020.6
20260831013028 75 196 0.0 0.0 0.00 0.00 0.00 90 1020.4
20260831012516 75 196 0.0 0.0 0.00 0.00 0.00 90 1020.4
20260831012016 75 196 0.0 0.0 0.00 0.00 0.00 90 1020.4
20260831011522 75 196 0.0 0.0 0.00 0.00 0.00 89 1020.3
20260831011005 75 196 0.0 0.0 0.00 0.00 0.00 90 1020.3
20260831010505 75 196 0.0 0.0 0.00 0.00 0.00 90 1020.3
20260831010017 75 196 0.0 0.0 0.00 0.00 0.00 90 1020.4
20260831005506 75 196 0.0 0.0 0.00 0.00 0.00 89 1020.3
20260831005012 75 196 0.0 0.0 0.00 0.00 0.00 89 1020.3
20260831004520 76 196 0.0 0.0 0.00 0.00 0.00 89 1020.3
20260831004012 76 198 0.0 0.0 0.00 0.00 0.00 89 1020.2
20260831003513 76 194 0.0 0.0 0.00 0.00 0.00 88 1020.4
20260831003025 76 196 0.0 0.0 0.00 0.00 0.00 88 1020.4
20260831002514 76 196 0.0 0.0 0.00 0.00 0.00 87 1020.3
20260831002014 77 196 0.0 0.0 0.00 0.00 0.00 87 1020.3
20260831001537 77 196 0.0 0.0 0.00 0.00 0.00 86 1020.4
20260831001018 77 196 0.0 0.0 0.00 0.00 0.00 86 1020.4
20260831000516 77 196 0.0 0.0 0.00 0.00 0.00 85 1020.5